Other Public Products
Issued by NWS Grand Forks, ND

Home | Current Version | Previous Version | Graphics & Text | Print | Product List | Glossary On
Versions: 1 2 3 4 5 6 7 8 9 10 11 12 13 14 15 16 17 18 19 20 21 22 23 24 25 26 27 28 29 30 31 32 33 34 35 36 37 38 39 40 41 42 43 44 45 46 47 48 49 50
000
FPUS83 KFGF 041731
OPUFGF
PRAIRIE TO PINES WEATHER ROUNDUP
NATIONAL WEATHER SERVICE EASTERN NORTH DAKOTA/GRAND FORKS ND
1200 PM CDT FRI SEP 04 2015

 **SATELLITE DATA USED TO AUGMENT SKY COVER AT AUTOMATED STATIONS**
 *****  WEATHER ACROSS EASTERN NORTH DAKOTA  *****

CITY           SKY/WX    TMP DP  RH WIND       PRES   REMARKS
GRAND FORKS    CLOUDY    75  73  93 SE5       29.77R
GRAND FORKS AF LGT RAIN  77  73  88 SE7       29.78S
GRAND CITY NWS   N/A     73 N/A N/A S1          N/A
BUXTON         NOT AVBL
DEVILS LAKE    CLOUDY    75  66  73 SE5       29.77S
FARGO          CLOUDY    83  71  67 S14       29.79R
WAHPETON ARPT  CLOUDY    77  66  69 S13       29.85R
$$

 *****  WEATHER ACROSS CENTRAL AND WESTERN NORTH DAKOTA  *****

CITY           SKY/WX    TMP DP  RH WIND       PRES   REMARKS
JAMESTOWN      LGT RAIN  73  67  81 S3        29.79S
BISMARCK       CLOUDY    78  71  79 E7        29.80R
MINOT          CLOUDY    71  62  73 N15       29.80F
MINOT AFB      CLOUDY    71  66  83 NE15      29.79F
GARRISON         N/A     70  61  73 NE12      29.80F
WILLISTON      CLOUDY    66  52  60 N21G28    29.87F
DICKINSON      CLOUDY    69  63  81 N9        29.82F
HETTINGER      MOSUNNY   78  61  55 NW13      29.82R
$$

 *****  OTHER OBSERVATIONS NORTHEAST NORTH DAKOTA  *****

CITY           SKY/WX    TMP DP  RH WIND       PRES   REMARKS
WALHALLA       TSTM      73  73 100 MISG      29.77F
LANGDON        FAIR      81  72  74 CALM      29.77F
CAVALIER       TSTM      75  72  88 S6        29.78F VSB 1
GRAFTON        TSTM      70  70 100 SE15G26   29.78F
CANDO          PTSUNNY   81  73  78 SE3       29.79S
FORT TOTTEN      N/A     76  72  86 SE3       29.95S
ROLLA          CLOUDY    61  61 100 N13       29.87R FOG
RUGBY          CLOUDY    66  66 100 N16G23    29.80R
 ***** THE ABOVE OBSERVATIONS ARE NON NWS ARE NOT QUALITY
        CONTROLLED AND MAY MIS-REPORT RAIN FOR SNOW...
$$

 *****  OTHER OBSERVATIONS SOUTHEAST NORTH DAKOTA *****

CITY           SKY/WX    TMP DP  RH WIND       PRES   REMARKS
COOPERSTOWN    NOT AVBL
VALLEY CITY    FAIR      77  72  83 W10       29.80R
OAKES            N/A     70  70 100 S9        29.82R
GWINNER          N/A     73  73 100 S8        29.82S
SHEYENNE NWR     N/A     78  69  74 SW7       29.95S
BUFFALO        NOT AVBL
WYNDMERE         N/A     79  72  78 S12         N/A
 ***** THE ABOVE OBSERVATIONS ARE NON NWS ARE NOT QUALITY
       CONTROLLED AND MAY MIS-REPORT RAIN FOR SNOW...
$$

  *****  WEATHER ACROSS NORTHERN MINNESOTA  *****

CITY           SKY/WX    TMP DP  RH WIND       PRES   REMARKS
FLAG ISLAND    PTSUNNY   73  64  73 SE5       29.89S
WARROAD        PTSUNNY   73  70  88 E10       29.87F
ROSEAU         MOSUNNY   75  70  83 E10       29.84F
HALLOCK        PTSUNNY   75  72  88 E12       29.76F
THF RVR FALLS  CLOUDY    79  72  78 SE12G17   29.82R
HALSTAD        NOT AVBL
FOSSTON        MOSUNNY   81  66  61 SE12      29.85R
BAUDETTE       MOSUNNY   79  68  69 SE15      29.89R
WASKISH        MOSUNNY   79  70  73 E12G18    29.90S
CROOKSTON      PTSUNNY   81  72  74 S14       29.80S
$$
  *****  WEATHER ACROSS CENTRAL AND WEST MINNESOTA  *****

CITY           SKY/WX    TMP DP  RH WIND       PRES   REMARKS
BEMIDJI        MOSUNNY   77  68  73 SE16      29.88F
PARK RAPIDS    PTSUNNY   79  68  69 SE14      29.89R
WADENA         CLOUDY    77  70  78 S10       29.90R
DETROIT LAKES  PTSUNNY   79  70  73 S9        29.88R
MOORHEAD       CLOUDY    82  70  65 S10       29.82R
FERGUS FALLS   CLOUDY    79  70  73 S13       29.85R
ELBOW LAKE     FAIR      77  70  79 S8        29.87R HAZE
MORRIS MN      CLOUDY    77  70  78 SW6       29.86S
STAPLES        MOSUNNY   81  70  69 S9G16     29.90R
WHEATON        CLOUDY    72  66  83 CALM      29.84F
$$
  *****  WEATHER ELSEWHERE ACROSS MINNESOTA  *****

CITY           SKY/WX    TMP DP  RH WIND       PRES   REMARKS
DULUTH         SUNNY     71  63  75 E15       30.00R
INTRNTL FALLS  SUNNY     80  67  64 SE13G23   29.93F
ELY            SUNNY     79  61  53 SE12G17   30.01F
CLOQUET        SUNNY     73  63  68 E8        29.99S
BRAINERD       MOSUNNY   81  69  67 SE10G20   29.91R
HIBBING        CLOUDY    78  68  71 SE15      29.98R
ALEXANDRIA     PTSUNNY   82  70  66 S15G22    29.91R
SAINT CLOUD    SUNNY     83  72  69 S14G22    29.90R
MINNEAPOLIS    PTSUNNY   82  71  69 SE13      29.92F
$$

  *****  WEATHER ACROSS SOUTH DAKOTA  *****

CITY           SKY/WX    TMP DP  RH WIND       PRES   REMARKS
SIOUX FALLS    TSTM      76  67  73 SE10      29.86S
BROOKINGS      CLOUDY   N/A N/A N/A SE8       29.88F
WATERTOWN      LGT RAIN  70  66  87 S8        29.86R
HURON          PTSUNNY   80  71  74 SE9       29.80F
SISSETON         N/A     75  67  76 SE5       29.82S
ABERDEEN       CLOUDY    74  68  81 S8        29.82S
MITCHELL       PTSUNNY   84  67  56 S13G20    29.80F
PIERRE         SUNNY     82  66  58 SE10      29.76S
MOBRIDGE       PTSUNNY   79  69  71 CALM      29.78R
RAPID CITY     SUNNY     81  56  42 VRB3      29.83S
$$

  *****  SOME WEATHER IN NEARBY STATES *****

CITY           SKY/WX    TMP DP  RH WIND       PRES   REMARKS
GLASGOW MT     MOSUNNY   67  44  43 NE17G26   29.91F
GREAT FALLS MT HVY RAIN  50  49  96 S5        30.00R FOG
CHEYENNE WY    SUNNY     81  36  19 W17G25    30.06S
SCOTTSBLUFF NE SUNNY     80  49  33 SW6       29.92F
OMAHA NE       PTSUNNY   83  71  67 SE15      29.89F
DES MOINES IA  PTSUNNY   88  71  57 S13       29.96S HX  94
DAVENPORT IA   PTSUNNY   86  70  58 SW3       30.02S HX  90
CHICAGO IL     PTSUNNY   78  67  68 CALM      30.03S
EAU CLAIRE WI  MOSUNNY   80  68  66 SE9       29.99F
LA CROSSE WI   MOSUNNY   83  70  64 S6        29.99S
$$

  *****  SOME NATIONAL WEATHER *****

CITY           SKY/WX    TMP DP  RH WIND       PRES   REMARKS
LA GUARDIA NY  CLOUDY    80  67  64 NE15      30.10R
RALEIGH NC     MOSUNNY   89  69  51 E3        30.01F HX  93
ATLANTA GA     MOSUNNY   88  70  55 NW7       30.03F HX  93
NEW ORLEANS LA PTSUNNY   86  75  69 NE7       30.00F HX  95
OKLAHOMA CITY  MOSUNNY   89  69  51 S16       29.99S HX  93
ALBUQUERQUE NM CLOUDY    74  49  41 SW7       30.15R
SALT LAKE CITY MOSUNNY   81  36  19 S24G33    29.85F
LOS ANGELES CA PTSUNNY   71  54  54 CALM      29.90R
BOISE ID       SUNNY     58  41  53 CALM      29.83F
SEATTLE WA     CLOUDY    54  47  77 N9        30.02S
$$

*** WEATHER ACROSS MANITOBA...SASKATCHEWAN AND ONTARIO ***
                ***ONTARIO***

CITY           SKY/WX    TMP DP  RH WIND       PRES   REMARKS
GERALDTON      MOSUNNY   79  63  57 S7        30.10F
THUNDER BAY    MOSUNNY   73  61  64 E9        30.08S
SIOUX LOOKOUT  PTSUNNY   77  64  65 S9        29.99S
TORONTO        MOSUNNY   81  63  54 E15G21    30.11F
BIG TROUT LK   LGT RAIN  64  63  94 SE5       29.90F
PICKLE LAKE    CLOUDY    75  63  64 S13       30.02R
DRYDEN         SUNNY     77  64  65 SE14      29.98S
KENORA         PTSUNNY   79  68  69 SE7       29.93R
$$
                *** MANITOBA***

CITY           SKY/WX    TMP DP  RH WIND       PRES   REMARKS
BRANDON        CLOUDY    66  59  77 NE18      29.88R
DAUPHIN        PTSUNNY   57  55  94 NW8       29.95F
ISLAND LAKE    CLOUDY    64  63  94 NW5       29.92R
PILOT MOUND      N/A     64  61  88 N15G22      N/A
THE PAS        MOSUNNY   61  46  59 N7        30.02S
THOMPSON       PTSUNNY   61  48  63 W10       29.95S
WINNIPEG       PTSUNNY   75  72  88 SE12      29.81F
LYNN LAKE      PTSUNNY   57  45  62 W6        29.99R
CHURCHILL      PTSUNNY   54  50  87 W10       29.88R
GILLAM         MOSUNNY   64  50  59 NW9       29.90R
$$
                ***SASKATCHEWAN***

CITY           SKY/WX    TMP DP  RH WIND       PRES   REMARKS
ESTEVAN        CLOUDY    66  54  63 NW15      29.89S
KINDERSLEY     CLOUDY    52  43  71 E15       30.08S
LLOYDMINSTER   PTSUNNY   50  43  76 NE8       30.13F
PRINCE ALBERT  CLOUDY    54  45  71 N5        30.09S
REGINA         PTSUNNY   54  50  87 N13G20    30.03F


USA.gov is the U.S. government's official web portal to all federal, state and local government web resources and services.